Location: Male Bielice
(48.6330°N, 18.3330°E)
Time: 11:17:18
(UTC+02:00)

ISS - Visible Passes

Search period start: 26 September 2017 00:00
Search period end: 06 October 2017 00:00
Orbit: 401 x 407 km, 51.6° (Epoch: 26 September)

Date Brightness Start Highest point End Pass type
(mag) Time Alt. Az. Time Alt. Az. Time Alt. Az.
26 Sep -2.5 20:27:52 10° SW 20:29:51 29° SSW 20:29:51 29° SSW visible
27 Sep -2.6 19:35:59 10° SSW 19:38:44 26° SE 19:40:01 20° ESE visible
27 Sep -1.2 21:11:43 10° WSW 21:12:41 18° WSW 21:12:41 18° WSW visible
28 Sep -4.0 20:19:21 10° WSW 20:22:37 75° SSE 20:22:41 75° SE visible
29 Sep -3.5 19:27:07 10° SW 19:30:16 48° SSE 19:32:33 17° E visible
29 Sep -1.7 21:03:31 10° W 21:05:12 26° W 21:05:12 26° W visible
30 Sep -3.7 20:11:02 10° WSW 20:14:18 70° NNW 20:14:57 51° NE visible
01 Oct -3.9 19:18:35 10° WSW 19:21:52 86° SSE 19:24:37 14° ENE visible
01 Oct -1.9 20:55:20 10° W 20:57:16 30° WNW 20:57:16 30° WNW visible
02 Oct -3.3 20:02:48 10° W 20:06:00 52° N 20:06:53 38° NE visible
03 Oct -3.5 19:10:15 10° W 19:13:30 64° NNW 19:16:26 12° ENE visible
03 Oct -2.0 20:47:03 10° WNW 20:49:05 31° NW 20:49:05 31° NW visible
04 Oct -3.2 19:54:31 10° WNW 19:57:42 47° N 19:58:36 35° NE visible
04 Oct -0.3 21:31:06 10° WNW 21:31:15 11° WNW 21:31:15 11° WNW visible
05 Oct -3.2 19:01:57 10° W 19:05:09 50° N 19:08:07 12° ENE visible
05 Oct -2.2 20:38:38 10° WNW 20:40:45 35° NW 20:40:45 35° NW visible
